Time,TemperatureF,DewpointF,PressureIn,WindDirection,WindDirectionDegrees,WindSpeedMPH,WindSpeedGustMPH,Humidity,HourlyPrecipIn,Conditions,Clouds,dailyrainin,SoftwareType,DateUTC
2013-09-07 00:00:00,66.8,45.9,29.48,North,360,0.0,1.0,47,0.00,,---,0.00,VWS V12.08,2013-09-07 04:00:00,
2013-09-07 00:02:00,66.8,45.9,29.48,North,360,0.0,1.0,47,0.00,,---,0.00,VWS V12.08,2013-09-07 04:02:00,
2013-09-07 00:04:00,66.9,46.0,29.48,North,360,0.0,1.0,47,0.00,,---,0.00,VWS V12.08,2013-09-07 04:04:00,
2013-09-07 00:06:00,67.1,45.7,29.48,North,360,0.0,1.0,46,0.00,,---,0.00,VWS V12.08,2013-09-07 04:06:00,
2013-09-07 00:11:00,66.8,44.2,29.48,North,360,3.0,6.0,44,0.00,,---,0.00,VWS V12.08,2013-09-07 04:11:00,
2013-09-07 00:16:00,66.0,43.5,29.48,North,360,4.0,8.0,44,0.00,,---,0.00,VWS V12.08,2013-09-07 04:16:00,
2013-09-07 00:17:00,65.8,43.9,29.48,North,360,1.0,8.0,45,0.00,,---,0.00,VWS V12.08,2013-09-07 04:17:00,
2013-09-07 00:22:00,65.8,43.9,29.48,SSE,161,0.0,8.0,45,0.00,,---,0.00,VWS V12.08,2013-09-07 04:22:00,
2013-09-07 00:27:00,66.1,44.2,29.48,North,360,0.0,8.0,45,0.00,,---,0.00,VWS V12.08,2013-09-07 04:27:00,
2013-09-07 00:33:00,66.9,45.5,29.48,North,360,0.0,1.0,46,0.00,,---,0.00,VWS V12.08,2013-09-07 04:33:00,
2013-09-07 00:38:00,66.6,45.2,29.48,North,360,0.0,2.0,46,0.00,,---,0.00,VWS V12.08,2013-09-07 04:38:00,
2013-09-07 00:43:00,66.4,45.0,29.48,North,360,2.0,2.0,46,0.00,,---,0.00,VWS V12.08,2013-09-07 04:43:00,
2013-09-07 00:48:00,66.0,44.7,29.48,North,360,0.0,5.0,46,0.00,,---,0.00,VWS V12.08,2013-09-07 04:48:00,
2013-09-07 00:53:00,65.3,45.1,29.48,North,360,0.0,5.0,48,0.00,,---,0.00,VWS V12.08,2013-09-07 04:53:00,
2013-09-07 00:58:00,65.0,45.4,29.48,North,360,2.0,5.0,49,0.00,,---,0.00,VWS V12.08,2013-09-07 04:58:00,
2013-09-07 01:03:00,65.2,45.0,29.48,North,360,2.0,3.0,48,0.00,,---,0.00,VWS V12.08,2013-09-07 05:03:00,
2013-09-07 01:08:00,65.5,44.8,29.48,North,360,0.0,5.0,47,0.00,,---,0.00,VWS V12.08,2013-09-07 05:08:00,
2013-09-07 01:13:00,65.8,45.0,29.48,North,360,1.0,5.0,47,0.00,,---,0.00,VWS V12.08,2013-09-07 05:13:00,
2013-09-07 01:18:00,65.8,44.5,29.48,North,360,3.0,5.0,46,0.00,,---,0.00,VWS V12.08,2013-09-07 05:18:00,
2013-09-07 01:23:00,65.6,44.3,29.48,North,360,0.0,5.0,46,0.00,,---,0.00,VWS V12.08,2013-09-07 05:23:00,
2013-09-07 01:28:00,65.8,44.5,29.48,North,360,0.0,0.0,46,0.00,,---,0.00,VWS V12.08,2013-09-07 05:28:00,
2013-09-07 01:33:00,66.0,44.7,29.48,North,360,1.0,4.0,46,0.00,,---,0.00,VWS V12.08,2013-09-07 05:33:00,
2013-09-07 01:38:00,65.6,43.7,29.48,North,360,0.0,6.0,45,0.00,,---,0.00,VWS V12.08,2013-09-07 05:38:00,
2013-09-07 01:43:00,65.5,43.6,29.48,North,360,0.0,6.0,45,0.00,,---,0.00,VWS V12.08,2013-09-07 05:43:00,
2013-09-07 01:48:00,65.3,43.4,29.48,North,360,0.0,6.0,45,0.00,,---,0.00,VWS V12.08,2013-09-07 05:48:00,
2013-09-07 01:53:00,64.8,44.1,29.48,North,360,0.0,6.0,47,0.00,,---,0.00,VWS V12.08,2013-09-07 05:53:00,
2013-09-07 01:58:00,64.7,44.6,29.47,North,360,4.0,6.0,48,0.00,,---,0.00,VWS V12.08,2013-09-07 05:58:00,
2013-09-07 02:03:00,64.5,44.4,29.47,North,360,1.0,4.0,48,0.00,,---,0.00,VWS V12.08,2013-09-07 06:03:00,
2013-09-07 02:08:00,65.0,44.8,29.47,North,360,0.0,4.0,48,0.00,,---,0.00,VWS V12.08,2013-09-07 06:08:00,
2013-09-07 02:13:00,65.3,44.0,29.47,North,360,2.0,4.0,46,0.00,,---,0.00,VWS V12.08,2013-09-07 06:13:00,
2013-09-07 02:18:00,65.2,43.9,29.47,North,360,2.0,4.0,46,0.00,,---,0.00,VWS V12.08,2013-09-07 06:18:00,
2013-09-07 02:23:00,64.8,44.1,29.47,North,360,2.0,4.0,47,0.00,,---,0.00,VWS V12.08,2013-09-07 06:23:00,
2013-09-07 02:28:00,64.8,44.1,29.48,North,360,2.0,2.0,47,0.00,,---,0.00,VWS V12.08,2013-09-07 06:28:00,
2013-09-07 02:33:00,64.8,43.6,29.48,North,360,1.0,5.0,46,0.00,,---,0.00,VWS V12.08,2013-09-07 06:33:00,
2013-09-07 02:38:00,64.7,44.0,29.48,North,360,0.0,5.0,47,0.00,,---,0.00,VWS V12.08,2013-09-07 06:38:00,
2013-09-07 02:43:00,64.3,43.7,29.48,North,360,2.0,5.0,47,0.00,,---,0.00,VWS V12.08,2013-09-07 06:43:00,
2013-09-07 02:48:00,64.0,43.9,29.48,North,360,2.0,10.0,48,0.00,,---,0.00,VWS V12.08,2013-09-07 06:48:00,
2013-09-07 02:53:00,63.9,43.8,29.48,North,360,0.0,10.0,48,0.00,,---,0.00,VWS V12.08,2013-09-07 06:53:00,
2013-09-07 02:58:00,64.3,43.7,29.48,North,360,0.0,10.0,47,0.00,,---,0.00,VWS V12.08,2013-09-07 06:58:00,
2013-09-07 03:03:00,64.3,43.7,29.48,North,360,0.0,1.0,47,0.00,,---,0.00,VWS V12.08,2013-09-07 07:03:00,
2013-09-07 03:08:00,64.2,44.7,29.48,North,360,0.0,6.0,49,0.00,,---,0.00,VWS V12.08,2013-09-07 07:08:00,
2013-09-07 03:13:00,64.7,45.1,29.47,North,360,1.0,6.0,49,0.00,,---,0.00,VWS V12.08,2013-09-07 07:13:00,
2013-09-07 03:18:00,64.2,45.2,29.47,North,360,0.0,6.0,50,0.00,,---,0.00,VWS V12.08,2013-09-07 07:18:00,
2013-09-07 03:23:00,64.2,45.2,29.47,North,360,0.0,6.0,50,0.00,,---,0.00,VWS V12.08,2013-09-07 07:23:00,
2013-09-07 03:28:00,64.3,45.3,29.47,North,360,0.0,0.0,50,0.00,,---,0.00,VWS V12.08,2013-09-07 07:28:00,
2013-09-07 03:33:00,64.3,45.8,29.47,North,360,1.0,4.0,51,0.00,,---,0.00,VWS V12.08,2013-09-07 07:33:00,
2013-09-07 03:38:00,64.2,45.7,29.47,North,360,0.0,4.0,51,0.00,,---,0.00,VWS V12.08,2013-09-07 07:38:00,
2013-09-07 03:43:00,63.9,46.5,29.47,North,360,1.0,5.0,53,0.00,,---,0.00,VWS V12.08,2013-09-07 07:43:00,
2013-09-07 03:48:00,63.7,46.3,29.47,North,360,0.0,5.0,53,0.00,,---,0.00,VWS V12.08,2013-09-07 07:48:00,
2013-09-07 03:53:00,64.0,46.0,29.47,North,360,1.0,5.0,52,0.00,,---,0.00,VWS V12.08,2013-09-07 07:53:00,
2013-09-07 03:58:00,64.0,46.0,29.47,North,360,0.0,5.0,52,0.00,,---,0.00,VWS V12.08,2013-09-07 07:58:00,
2013-09-07 04:03:00,64.3,46.3,29.47,North,360,1.0,2.0,52,0.00,,---,0.00,VWS V12.08,2013-09-07 08:03:00,
2013-09-07 04:08:00,64.3,46.3,29.47,North,360,0.0,3.0,52,0.00,,---,0.00,VWS V12.08,2013-09-07 08:08:00,
2013-09-07 04:13:00,64.3,46.3,29.47,North,360,0.0,3.0,52,0.00,,---,0.00,VWS V12.08,2013-09-07 08:13:00,
2013-09-07 04:18:00,64.3,46.8,29.47,North,360,0.0,3.0,53,0.00,,---,0.00,VWS V12.08,2013-09-07 08:18:00,
2013-09-07 04:23:00,64.2,46.7,29.47,North,360,7.0,7.0,53,0.00,,---,0.00,VWS V12.08,2013-09-07 08:23:00,
2013-09-07 04:28:00,63.9,47.0,29.47,North,360,1.0,7.0,54,0.00,,---,0.00,VWS V12.08,2013-09-07 08:28:00,
2013-09-07 04:33:00,63.4,47.5,29.47,North,360,0.0,6.0,56,0.00,,---,0.00,VWS V12.08,2013-09-07 08:33:00,
2013-09-07 04:38:00,63.2,47.7,29.47,North,360,0.0,7.0,57,0.00,,---,0.00,VWS V12.08,2013-09-07 08:38:00,
2013-09-07 04:43:00,63.4,47.5,29.47,North,360,1.0,7.0,56,0.00,,---,0.00,VWS V12.08,2013-09-07 08:43:00,
2013-09-07 04:48:00,63.1,47.6,29.47,North,360,0.0,7.0,57,0.00,,---,0.00,VWS V12.08,2013-09-07 08:48:00,
2013-09-07 04:53:00,63.1,47.6,29.47,North,360,0.0,7.0,57,0.00,,---,0.00,VWS V12.08,2013-09-07 08:53:00,
2013-09-07 04:58:00,62.9,47.5,29.47,North,360,0.0,7.0,57,0.00,,---,0.00,VWS V12.08,2013-09-07 08:58:00,
2013-09-07 05:03:00,63.1,47.6,29.47,North,360,1.0,3.0,57,0.00,,---,0.00,VWS V12.08,2013-09-07 09:03:00,
2013-09-07 05:08:00,62.9,47.9,29.47,North,360,0.0,5.0,58,0.00,,---,0.00,VWS V12.08,2013-09-07 09:08:00,
2013-09-07 05:13:00,62.9,47.5,29.46,North,360,1.0,5.0,57,0.00,,---,0.00,VWS V12.08,2013-09-07 09:13:00,
2013-09-07 05:18:00,63.2,47.7,29.46,North,360,5.0,6.0,57,0.00,,---,0.00,VWS V12.08,2013-09-07 09:18:00,
2013-09-07 05:23:00,63.5,47.5,29.46,North,360,0.0,6.0,56,0.00,,---,0.00,VWS V12.08,2013-09-07 09:23:00,
2013-09-07 05:28:00,63.5,47.5,29.46,North,360,0.0,6.0,56,0.00,,---,0.00,VWS V12.08,2013-09-07 09:28:00,
2013-09-07 05:33:00,63.7,47.2,29.46,North,360,0.0,3.0,55,0.00,,---,0.00,VWS V12.08,2013-09-07 09:33:00,
2013-09-07 05:38:00,63.7,47.2,29.46,North,360,0.0,4.0,55,0.00,,---,0.00,VWS V12.08,2013-09-07 09:38:00,
2013-09-07 05:43:00,64.2,47.2,29.46,North,360,0.0,4.0,54,0.00,,---,0.00,VWS V12.08,2013-09-07 09:43:00,
2013-09-07 05:48:00,64.0,46.5,29.46,North,360,0.0,5.0,53,0.00,,---,0.00,VWS V12.08,2013-09-07 09:48:00,
2013-09-07 05:53:00,64.0,46.5,29.46,North,360,0.0,6.0,53,0.00,,---,0.00,VWS V12.08,2013-09-07 09:53:00,
2013-09-07 05:58:00,63.9,47.4,29.46,North,360,0.0,6.0,55,0.00,,---,0.00,VWS V12.08,2013-09-07 09:58:00,
2013-09-07 06:03:00,63.5,47.1,29.46,North,360,0.0,3.0,55,0.00,,---,0.00,VWS V12.08,2013-09-07 10:03:00,
2013-09-07 06:08:00,63.9,47.0,29.46,North,360,0.0,4.0,54,0.00,,---,0.00,VWS V12.08,2013-09-07 10:08:00,
2013-09-07 06:13:00,63.9,47.0,29.45,North,360,0.0,4.0,54,0.00,,---,0.00,VWS V12.08,2013-09-07 10:13:00,
2013-09-07 06:18:00,64.3,47.3,29.45,North,360,0.0,4.0,54,0.00,,---,0.00,VWS V12.08,2013-09-07 10:18:00,
2013-09-07 06:23:00,64.2,47.2,29.45,North,360,0.0,4.0,54,0.00,,---,0.00,VWS V12.08,2013-09-07 10:23:00,
2013-09-07 06:28:00,64.2,47.7,29.45,North,360,0.0,4.0,55,0.00,,---,0.00,VWS V12.08,2013-09-07 10:28:00,
2013-09-07 06:33:00,63.9,47.9,29.45,North,360,0.0,3.0,56,0.00,,---,0.00,VWS V12.08,2013-09-07 10:33:00,
2013-09-07 06:38:00,63.5,47.5,29.45,North,360,2.0,4.0,56,0.00,,---,0.00,VWS V12.08,2013-09-07 10:38:00,
2013-09-07 06:43:00,63.7,47.7,29.45,North,360,2.0,4.0,56,0.00,,---,0.00,VWS V12.08,2013-09-07 10:43:00,
2013-09-07 06:48:00,63.5,48.0,29.45,North,360,0.0,4.0,57,0.00,,---,0.00,VWS V12.08,2013-09-07 10:48:00,
2013-09-07 06:53:00,63.7,47.7,29.45,North,360,0.0,4.0,56,0.00,,---,0.00,VWS V12.08,2013-09-07 10:53:00,
2013-09-07 06:58:00,63.7,47.2,29.45,North,360,0.0,6.0,55,0.00,,---,0.00,VWS V12.08,2013-09-07 10:58:00,
2013-09-07 07:03:00,63.7,46.3,29.45,North,360,2.0,2.0,53,0.00,,---,0.00,VWS V12.08,2013-09-07 11:03:00,
2013-09-07 07:08:00,64.2,46.7,29.45,North,360,0.0,2.0,53,0.00,,---,0.00,VWS V12.08,2013-09-07 11:08:00,
2013-09-07 07:13:00,64.5,47.0,29.45,North,360,1.0,2.0,53,0.00,,---,0.00,VWS V12.08,2013-09-07 11:13:00,
2013-09-07 07:18:00,64.3,46.3,29.45,North,360,0.0,4.0,52,0.00,,---,0.00,VWS V12.08,2013-09-07 11:18:00,
2013-09-07 07:23:00,64.2,46.7,29.45,North,360,0.0,4.0,53,0.00,,---,0.00,VWS V12.08,2013-09-07 11:23:00,
2013-09-07 07:28:00,64.5,47.0,29.45,North,360,0.0,4.0,53,0.00,,---,0.00,VWS V12.08,2013-09-07 11:28:00,
2013-09-07 07:33:00,64.5,46.5,29.45,North,360,0.0,2.0,52,0.00,,---,0.00,VWS V12.08,2013-09-07 11:33:00,
2013-09-07 07:38:00,64.5,46.5,29.45,North,360,2.0,3.0,52,0.00,,---,0.00,VWS V12.08,2013-09-07 11:38:00,
2013-09-07 07:43:00,64.5,46.5,29.45,North,360,0.0,3.0,52,0.00,,---,0.00,VWS V12.08,2013-09-07 11:43:00,
2013-09-07 07:48:00,64.7,46.7,29.45,North,360,2.0,3.0,52,0.00,,---,0.00,VWS V12.08,2013-09-07 11:48:00,
2013-09-07 07:53:00,64.5,46.5,29.45,North,360,0.0,3.0,52,0.00,,---,0.00,VWS V12.08,2013-09-07 11:53:00,
2013-09-07 07:58:00,64.7,46.2,29.45,North,360,0.0,0.0,51,0.00,,---,0.00,VWS V12.08,2013-09-07 11:58:00,
2013-09-07 08:03:00,64.7,46.7,29.45,North,360,0.0,2.0,52,0.00,,---,0.00,VWS V12.08,2013-09-07 12:03:00,
2013-09-07 08:08:00,65.2,46.1,29.45,North,360,0.0,2.0,50,0.00,,---,0.00,VWS V12.08,2013-09-07 12:08:00,
2013-09-07 08:13:00,65.2,46.1,29.44,North,360,2.0,3.0,50,0.00,,---,0.00,VWS V12.08,2013-09-07 12:13:00,
2013-09-07 08:18:00,65.3,45.7,29.44,North,360,1.0,3.0,49,0.00,,---,0.00,VWS V12.08,2013-09-07 12:18:00,
2013-09-07 08:23:00,65.3,45.7,29.44,North,360,4.0,4.0,49,0.00,,---,0.00,VWS V12.08,2013-09-07 12:23:00,
2013-09-07 08:28:00,65.5,45.3,29.44,North,360,0.0,4.0,48,0.00,,---,0.00,VWS V12.08,2013-09-07 12:28:00,
2013-09-07 08:33:00,66.1,45.3,29.44,North,360,0.0,4.0,47,0.00,,---,0.00,VWS V12.08,2013-09-07 12:33:00,
2013-09-07 08:38:00,66.4,45.6,29.44,North,360,0.0,6.0,47,0.00,,---,0.00,VWS V12.08,2013-09-07 12:38:00,
2013-09-07 08:43:00,66.6,44.6,29.44,North,360,2.0,6.0,45,0.00,,---,0.00,VWS V12.08,2013-09-07 12:43:00,
2013-09-07 08:48:00,67.1,45.1,29.44,North,360,0.0,6.0,45,0.00,,---,0.00,VWS V12.08,2013-09-07 12:48:00,
2013-09-07 08:53:00,67.8,45.1,29.44,North,360,0.0,6.0,44,0.00,,---,0.00,VWS V12.08,2013-09-07 12:53:00,
2013-09-07 08:58:00,68.4,45.0,29.44,North,360,0.0,0.0,43,0.00,,---,0.00,VWS V12.08,2013-09-07 12:58:00,
2013-09-07 09:03:00,68.4,43.8,29.44,North,360,6.0,6.0,41,0.00,,---,0.00,VWS V12.08,2013-09-07 13:03:00,
2013-09-07 09:08:00,68.1,42.9,29.44,SW,225,1.0,7.0,40,0.00,,---,0.00,VWS V12.08,2013-09-07 13:08:00,
2013-09-07 09:13:00,68.8,43.5,29.44,North,360,2.0,7.0,40,0.00,,---,0.00,VWS V12.08,2013-09-07 13:13:00,
2013-09-07 09:18:00,69.3,42.6,29.44,North,360,1.0,7.0,38,0.00,,---,0.00,VWS V12.08,2013-09-07 13:18:00,
2013-09-07 09:23:00,69.8,43.8,29.44,North,360,2.0,7.0,39,0.00,,---,0.00,VWS V12.08,2013-09-07 13:23:00,
2013-09-07 09:28:00,70.6,43.8,29.44,North,360,2.0,7.0,38,0.00,,---,0.00,VWS V12.08,2013-09-07 13:28:00,
2013-09-07 09:33:00,70.8,44.0,29.44,North,360,4.0,5.0,38,0.00,,---,0.00,VWS V12.08,2013-09-07 13:33:00,
2013-09-07 09:38:00,69.9,43.8,29.44,North,360,0.0,5.0,39,0.00,,---,0.00,VWS V12.08,2013-09-07 13:38:00,
2013-09-07 09:43:00,70.8,44.0,29.44,North,360,1.0,5.0,38,0.00,,---,0.00,VWS V12.08,2013-09-07 13:43:00,
2013-09-07 09:48:00,71.1,43.5,29.44,North,360,0.0,5.0,37,0.00,,---,0.00,VWS V12.08,2013-09-07 13:48:00,
2013-09-07 09:53:00,71.3,43.7,29.44,North,360,0.0,5.0,37,0.00,,---,0.00,VWS V12.08,2013-09-07 13:53:00,
2013-09-07 09:58:00,71.6,43.3,29.44,North,360,1.0,1.0,36,0.00,,---,0.00,VWS V12.08,2013-09-07 13:58:00,
2013-09-07 10:03:00,71.6,42.5,29.44,North,360,2.0,4.0,35,0.00,,---,0.00,VWS V12.08,2013-09-07 14:03:00,
2013-09-07 10:08:00,71.8,43.4,29.44,North,360,2.0,4.0,36,0.00,,---,0.00,VWS V12.08,2013-09-07 14:08:00,
2013-09-07 10:13:00,71.8,43.4,29.44,North,360,0.0,4.0,36,0.00,,---,0.00,VWS V12.08,2013-09-07 14:13:00,
2013-09-07 10:18:00,72.1,43.0,29.44,North,360,0.0,4.0,35,0.00,,---,0.00,VWS V12.08,2013-09-07 14:18:00,
2013-09-07 10:23:00,72.5,42.6,29.44,North,360,3.0,4.0,34,0.00,,---,0.00,VWS V12.08,2013-09-07 14:23:00,
2013-09-07 10:28:00,72.5,42.6,29.44,North,360,3.0,4.0,34,0.00,,---,0.00,VWS V12.08,2013-09-07 14:28:00,
2013-09-07 10:33:00,72.5,42.6,29.44,North,360,2.0,3.0,34,0.00,,---,0.00,VWS V12.08,2013-09-07 14:33:00,
2013-09-07 10:38:00,73.0,43.0,29.44,North,360,0.0,3.0,34,0.00,,---,0.00,VWS V12.08,2013-09-07 14:38:00,
2013-09-07 10:43:00,73.5,42.7,29.44,North,360,1.0,4.0,33,0.00,,---,0.00,VWS V12.08,2013-09-07 14:43:00,
2013-09-07 10:48:00,73.9,42.2,29.44,North,360,1.0,4.0,32,0.00,,---,0.00,VWS V12.08,2013-09-07 14:48:00,
2013-09-07 10:53:00,74.2,41.7,29.44,North,360,2.0,4.0,31,0.00,,---,0.00,VWS V12.08,2013-09-07 14:53:00,
2013-09-07 10:58:00,74.4,41.0,29.44,North,360,0.0,2.0,30,0.00,,---,0.00,VWS V12.08,2013-09-07 14:58:00,
2013-09-07 11:03:00,74.4,41.0,29.44,North,360,3.0,6.0,30,0.00,,---,0.00,VWS V12.08,2013-09-07 15:03:00,
2013-09-07 11:08:00,74.2,40.8,29.44,North,360,4.0,10.0,30,0.00,,---,0.00,VWS V12.08,2013-09-07 15:08:00,
2013-09-07 11:13:00,74.6,41.2,29.43,North,360,1.0,10.0,30,0.00,,---,0.00,VWS V12.08,2013-09-07 15:13:00,
2013-09-07 11:18:00,75.3,41.8,29.43,North,360,0.0,10.0,30,0.00,,---,0.00,VWS V12.08,2013-09-07 15:18:00,
2013-09-07 11:23:00,74.9,41.4,29.43,North,360,0.0,10.0,30,0.00,,---,0.00,VWS V12.08,2013-09-07 15:23:00,
2013-09-07 11:28:00,74.7,39.5,29.43,North,360,3.0,10.0,28,0.00,,---,0.00,VWS V12.08,2013-09-07 15:28:00,
2013-09-07 11:33:00,75.1,39.8,29.43,North,360,0.0,9.0,28,0.00,,---,0.00,VWS V12.08,2013-09-07 15:33:00,
2013-09-07 11:38:00,75.6,39.3,29.43,North,360,0.0,11.0,27,0.00,,---,0.00,VWS V12.08,2013-09-07 15:38:00,
2013-09-07 11:43:00,75.8,40.4,29.43,North,360,0.0,11.0,28,0.00,,---,0.00,VWS V12.08,2013-09-07 15:43:00,
2013-09-07 11:48:00,75.1,39.8,29.43,North,360,1.0,11.0,28,0.00,,---,0.00,VWS V12.08,2013-09-07 15:48:00,
2013-09-07 11:53:00,76.0,40.6,29.43,North,360,0.0,12.0,28,0.00,,---,0.00,VWS V12.08,2013-09-07 15:53:00,
2013-09-07 11:58:00,75.6,40.2,29.42,North,360,5.0,6.0,28,0.00,,---,0.00,VWS V12.08,2013-09-07 15:58:00,
2013-09-07 12:03:00,75.1,38.9,29.42,North,360,0.0,6.0,27,0.00,,---,0.00,VWS V12.08,2013-09-07 16:03:00,
2013-09-07 12:08:00,76.3,39.9,29.42,North,360,4.0,6.0,27,0.00,,---,0.00,VWS V12.08,2013-09-07 16:08:00,
2013-09-07 12:13:00,76.8,40.3,29.41,North,360,1.0,6.0,27,0.00,,---,0.00,VWS V12.08,2013-09-07 16:13:00,
2013-09-07 12:18:00,77.2,39.7,29.41,North,360,1.0,6.0,26,0.00,,---,0.00,VWS V12.08,2013-09-07 16:18:00,
2013-09-07 12:23:00,77.7,40.1,29.41,North,360,1.0,6.0,26,0.00,,---,0.00,VWS V12.08,2013-09-07 16:23:00,
2013-09-07 12:28:00,78.1,40.5,29.40,North,360,4.0,6.0,26,0.00,,---,0.00,VWS V12.08,2013-09-07 16:28:00,
2013-09-07 12:33:00,78.1,40.5,29.40,North,360,0.0,4.0,26,0.00,,---,0.00,VWS V12.08,2013-09-07 16:33:00,
2013-09-07 12:38:00,78.3,41.6,29.40,North,360,2.0,5.0,27,0.00,,---,0.00,VWS V12.08,2013-09-07 16:38:00,
2013-09-07 12:43:00,77.7,41.1,29.39,North,360,2.0,6.0,27,0.00,,---,0.00,VWS V12.08,2013-09-07 16:43:00,
2013-09-07 12:48:00,78.1,41.4,29.39,North,360,5.0,6.0,27,0.00,,---,0.00,VWS V12.08,2013-09-07 16:48:00,
2013-09-07 12:53:00,77.7,40.1,29.39,North,360,6.0,6.0,26,0.00,,---,0.00,VWS V12.08,2013-09-07 16:53:00,
2013-09-07 12:58:00,76.5,41.0,29.38,North,360,2.0,6.0,28,0.00,,---,0.00,VWS V12.08,2013-09-07 16:58:00,
2013-09-07 13:03:00,76.7,40.2,29.38,North,360,1.0,5.0,27,0.00,,---,0.00,VWS V12.08,2013-09-07 17:03:00,
2013-09-07 13:08:00,76.8,41.3,29.38,North,360,2.0,6.0,28,0.00,,---,0.00,VWS V12.08,2013-09-07 17:08:00,
2013-09-07 13:13:00,76.5,41.0,29.36,North,360,0.0,6.0,28,0.00,,---,0.00,VWS V12.08,2013-09-07 17:13:00,
2013-09-07 13:18:00,76.3,40.8,29.36,North,360,0.0,7.0,28,0.00,,---,0.00,VWS V12.08,2013-09-07 17:18:00,
2013-09-07 13:23:00,76.7,40.2,29.36,North,360,0.0,7.0,27,0.00,,---,0.00,VWS V12.08,2013-09-07 17:23:00,
2013-09-07 13:28:00,78.1,40.5,29.36,North,360,2.0,7.0,26,0.00,,---,0.00,VWS V12.08,2013-09-07 17:28:00,
2013-09-07 13:33:00,78.3,40.6,29.36,North,360,0.0,4.0,26,0.00,,---,0.00,VWS V12.08,2013-09-07 17:33:00,
2013-09-07 13:38:00,78.8,40.0,29.36,North,360,1.0,7.0,25,0.00,,---,0.00,VWS V12.08,2013-09-07 17:38:00,
2013-09-07 13:43:00,78.5,41.8,29.36,North,360,4.0,7.0,27,0.00,,---,0.00,VWS V12.08,2013-09-07 17:43:00,
2013-09-07 13:48:00,78.6,40.9,29.36,North,360,1.0,7.0,26,0.00,,---,0.00,VWS V12.08,2013-09-07 17:48:00,
2013-09-07 13:53:00,78.8,41.0,29.36,North,360,0.0,7.0,26,0.00,,---,0.00,VWS V12.08,2013-09-07 17:53:00,
2013-09-07 13:58:00,79.9,41.0,29.35,North,360,1.0,7.0,25,0.00,,---,0.00,VWS V12.08,2013-09-07 17:58:00,
2013-09-07 14:03:00,78.6,41.9,29.35,North,360,3.0,5.0,27,0.00,,---,0.00,VWS V12.08,2013-09-07 18:03:00,
2013-09-07 14:08:00,78.6,41.9,29.35,North,360,1.0,5.0,27,0.00,,---,0.00,VWS V12.08,2013-09-07 18:08:00,
2013-09-07 14:13:00,79.0,42.2,29.34,North,360,2.0,5.0,27,0.00,,---,0.00,VWS V12.08,2013-09-07 18:13:00,
2013-09-07 14:18:00,78.8,42.0,29.34,North,360,1.0,6.0,27,0.00,,---,0.00,VWS V12.08,2013-09-07 18:18:00,
2013-09-07 14:23:00,78.5,42.7,29.34,North,360,0.0,6.0,28,0.00,,---,0.00,VWS V12.08,2013-09-07 18:23:00,
2013-09-07 14:28:00,78.6,41.9,29.34,North,360,3.0,3.0,27,0.00,,---,0.00,VWS V12.08,2013-09-07 18:28:00,
2013-09-07 14:33:00,79.0,42.2,29.34,WNW,284,0.0,3.0,27,0.00,,---,0.00,VWS V12.08,2013-09-07 18:33:00,
2013-09-07 14:38:00,79.8,41.9,29.34,North,360,2.0,3.0,26,0.00,,---,0.00,VWS V12.08,2013-09-07 18:38:00,
2013-09-07 14:43:00,80.1,42.2,29.32,North,360,0.0,3.0,26,0.00,,---,0.00,VWS V12.08,2013-09-07 18:43:00,
2013-09-07 14:48:00,80.9,41.8,29.32,North,360,0.0,4.0,25,0.00,,---,0.00,VWS V12.08,2013-09-07 18:48:00,
2013-09-07 14:53:00,79.8,41.9,29.32,North,360,3.0,9.0,26,0.00,,---,0.00,VWS V12.08,2013-09-07 18:53:00,
2013-09-07 14:58:00,79.0,42.2,29.32,North,360,0.0,9.0,27,0.00,,---,0.00,VWS V12.08,2013-09-07 18:58:00,
2013-09-07 15:03:00,79.8,41.9,29.32,North,360,0.0,0.0,26,0.00,,---,0.00,VWS V12.08,2013-09-07 19:03:00,
2013-09-07 15:08:00,80.1,41.1,29.32,North,360,2.0,6.0,25,0.00,,---,0.00,VWS V12.08,2013-09-07 19:08:00,
2013-09-07 15:13:00,79.4,41.6,29.32,North,360,2.0,8.0,26,0.00,,---,0.00,VWS V12.08,2013-09-07 19:13:00,
2013-09-07 15:18:00,79.8,41.9,29.32,North,360,0.0,8.0,26,0.00,,---,0.00,VWS V12.08,2013-09-07 19:18:00,
2013-09-07 15:23:00,79.9,41.0,29.32,NE,55,0.0,8.0,25,0.00,,---,0.00,VWS V12.08,2013-09-07 19:23:00,
2013-09-07 15:28:00,80.7,41.7,29.32,North,360,3.0,3.0,25,0.00,,---,0.00,VWS V12.08,2013-09-07 19:28:00,
2013-09-07 15:33:00,79.6,40.7,29.32,North,360,1.0,8.0,25,0.00,,---,0.00,VWS V12.08,2013-09-07 19:33:00,
2013-09-07 15:38:00,79.0,41.2,29.32,North,360,9.0,9.0,26,0.00,,---,0.00,VWS V12.08,2013-09-07 19:38:00,
2013-09-07 15:43:00,78.5,40.8,29.32,North,360,0.0,9.0,26,0.00,,---,0.00,VWS V12.08,2013-09-07 19:43:00,
2013-09-07 15:48:00,78.8,42.0,29.32,North,360,6.0,9.0,27,0.00,,---,0.00,VWS V12.08,2013-09-07 19:48:00,
2013-09-07 15:53:00,78.5,40.8,29.32,North,360,0.0,9.0,26,0.00,,---,0.00,VWS V12.08,2013-09-07 19:53:00,
2013-09-07 15:58:00,78.1,41.4,29.32,North,360,0.0,9.0,27,0.00,,---,0.00,VWS V12.08,2013-09-07 19:58:00,
2013-09-07 16:03:00,78.6,41.9,29.32,North,360,1.0,2.0,27,0.00,,---,0.00,VWS V12.08,2013-09-07 20:03:00,
2013-09-07 16:08:00,78.6,41.9,29.32,North,360,0.0,4.0,27,0.00,,---,0.00,VWS V12.08,2013-09-07 20:08:00,
2013-09-07 16:13:00,79.8,41.9,29.31,North,360,0.0,4.0,26,0.00,,---,0.00,VWS V12.08,2013-09-07 20:13:00,
2013-09-07 16:18:00,80.5,41.5,29.31,North,360,2.0,5.0,25,0.00,,---,0.00,VWS V12.08,2013-09-07 20:18:00,
2013-09-07 16:23:00,79.2,41.4,29.31,North,360,0.0,6.0,26,0.00,,---,0.00,VWS V12.08,2013-09-07 20:23:00,
2013-09-07 16:28:00,79.4,41.6,29.30,North,360,0.0,5.0,26,0.00,,---,0.00,VWS V12.08,2013-09-07 20:28:00,
2013-09-07 16:33:00,79.9,42.0,29.30,North,360,0.0,5.0,26,0.00,,---,0.00,VWS V12.08,2013-09-07 20:33:00,
2013-09-07 16:38:00,80.1,42.2,29.30,North,360,4.0,7.0,26,0.00,,---,0.00,VWS V12.08,2013-09-07 20:38:00,
2013-09-07 16:43:00,78.6,42.8,29.30,North,360,0.0,7.0,28,0.00,,---,0.00,VWS V12.08,2013-09-07 20:43:00,
2013-09-07 16:48:00,78.1,45.0,29.30,North,360,0.0,7.0,31,0.00,,---,0.00,VWS V12.08,2013-09-07 20:48:00,
2013-09-07 16:53:00,77.6,46.2,29.30,North,360,0.0,7.0,33,0.00,,---,0.00,VWS V12.08,2013-09-07 20:53:00,
2013-09-07 16:58:00,77.4,46.9,29.30,North,360,4.0,7.0,34,0.00,,---,0.00,VWS V12.08,2013-09-07 20:58:00,
2013-09-07 17:03:00,77.6,46.2,29.30,North,360,3.0,6.0,33,0.00,,---,0.00,VWS V12.08,2013-09-07 21:03:00,
2013-09-07 17:08:00,76.8,47.1,29.30,North,360,0.0,6.0,35,0.00,,---,0.00,VWS V12.08,2013-09-07 21:08:00,
2013-09-07 17:13:00,76.7,47.8,29.30,North,360,0.0,6.0,36,0.00,,---,0.00,VWS V12.08,2013-09-07 21:13:00,
2013-09-07 17:18:00,76.5,48.3,29.30,North,360,0.0,6.0,37,0.00,,---,0.00,VWS V12.08,2013-09-07 21:18:00,
2013-09-07 17:23:00,76.0,48.6,29.30,North,360,2.0,9.0,38,0.00,,---,0.00,VWS V12.08,2013-09-07 21:23:00,
2013-09-07 17:28:00,75.4,48.8,29.30,North,360,3.0,5.0,39,0.00,,---,0.00,VWS V12.08,2013-09-07 21:28:00,
2013-09-07 17:33:00,75.1,49.2,29.30,North,360,0.0,9.0,40,0.00,,---,0.00,VWS V12.08,2013-09-07 21:33:00,
2013-09-07 17:38:00,75.3,49.3,29.30,North,360,0.0,9.0,40,0.00,,---,0.00,VWS V12.08,2013-09-07 21:38:00,
2013-09-07 17:43:00,75.3,49.3,29.30,North,360,3.0,9.0,40,0.00,,---,0.00,VWS V12.08,2013-09-07 21:43:00,
2013-09-07 17:48:00,75.1,49.2,29.30,North,360,3.0,9.0,40,0.00,,---,0.00,VWS V12.08,2013-09-07 21:48:00,
2013-09-07 17:53:00,75.1,49.2,29.30,North,360,9.0,9.0,40,0.00,,---,0.00,VWS V12.08,2013-09-07 21:53:00,
2013-09-07 17:58:00,74.6,50.0,29.30,North,360,3.0,9.0,42,0.00,,---,0.00,VWS V12.08,2013-09-07 21:58:00,
2013-09-07 18:03:00,74.4,49.8,29.30,North,360,2.0,6.0,42,0.00,,---,0.00,VWS V12.08,2013-09-07 22:03:00,
2013-09-07 18:08:00,74.0,50.1,29.30,North,360,0.0,8.0,43,0.00,,---,0.00,VWS V12.08,2013-09-07 22:08:00,
2013-09-07 18:13:00,73.9,50.6,29.29,North,360,1.0,8.0,44,0.00,,---,0.00,VWS V12.08,2013-09-07 22:13:00,
2013-09-07 18:18:00,73.7,50.5,29.29,North,360,2.0,9.0,44,0.00,,---,0.00,VWS V12.08,2013-09-07 22:18:00,
2013-09-07 18:23:00,73.5,50.9,29.29,North,360,2.0,9.0,45,0.00,,---,0.00,VWS V12.08,2013-09-07 22:23:00,
2013-09-07 18:28:00,73.5,50.9,29.29,North,360,5.0,6.0,45,0.00,,---,0.00,VWS V12.08,2013-09-07 22:28:00,
2013-09-07 18:33:00,73.3,50.7,29.29,North,360,1.0,6.0,45,0.00,,---,0.00,VWS V12.08,2013-09-07 22:33:00,
2013-09-07 18:38:00,73.3,51.3,29.29,North,360,1.0,6.0,46,0.00,,---,0.00,VWS V12.08,2013-09-07 22:38:00,
2013-09-07 18:43:00,73.2,51.2,29.29,North,360,2.0,6.0,46,0.00,,---,0.00,VWS V12.08,2013-09-07 22:43:00,
2013-09-07 18:48:00,73.2,51.8,29.29,North,360,0.0,6.0,47,0.00,,---,0.00,VWS V12.08,2013-09-07 22:48:00,
2013-09-07 18:53:00,73.2,51.8,29.29,North,360,4.0,6.0,47,0.00,,---,0.00,VWS V12.08,2013-09-07 22:53:00,
2013-09-07 18:58:00,73.2,52.4,29.29,North,360,4.0,6.0,48,0.00,,---,0.00,VWS V12.08,2013-09-07 22:58:00,
2013-09-07 19:03:00,73.0,52.2,29.29,North,360,2.0,4.0,48,0.00,,---,0.00,VWS V12.08,2013-09-07 23:03:00,
2013-09-07 19:08:00,72.8,52.0,29.29,North,360,2.0,5.0,48,0.00,,---,0.00,VWS V12.08,2013-09-07 23:08:00,
2013-09-07 19:13:00,72.8,52.5,29.28,North,360,6.0,6.0,49,0.00,,---,0.00,VWS V12.08,2013-09-07 23:13:00,
2013-09-07 19:18:00,72.8,52.5,29.28,SSE,157,2.0,6.0,49,0.00,,---,0.00,VWS V12.08,2013-09-07 23:18:00,
2013-09-07 19:23:00,73.0,52.2,29.28,North,360,0.0,6.0,48,0.00,,---,0.00,VWS V12.08,2013-09-07 23:23:00,
2013-09-07 19:28:00,73.0,52.2,29.29,North,360,0.0,0.0,48,0.00,,---,0.00,VWS V12.08,2013-09-07 23:28:00,
2013-09-07 19:33:00,72.8,52.5,29.29,North,360,2.0,6.0,49,0.00,,---,0.00,VWS V12.08,2013-09-07 23:33:00,
2013-09-07 19:38:00,72.7,53.0,29.29,North,360,4.0,6.0,50,0.00,,---,0.00,VWS V12.08,2013-09-07 23:38:00,
2013-09-07 19:43:00,72.8,53.1,29.29,North,360,1.0,6.0,50,0.00,,---,0.00,VWS V12.08,2013-09-07 23:43:00,
2013-09-07 19:48:00,73.0,53.3,29.29,North,360,2.0,6.0,50,0.00,,---,0.00,VWS V12.08,2013-09-07 23:48:00,
2013-09-07 19:53:00,73.0,53.3,29.29,South,169,0.0,6.0,50,0.00,,---,0.00,VWS V12.08,2013-09-07 23:53:00,
2013-09-07 19:58:00,73.0,53.3,29.29,North,360,0.0,6.0,50,0.00,,---,0.00,VWS V12.08,2013-09-07 23:58:00,
2013-09-07 20:03:00,73.2,53.5,29.29,North,360,2.0,3.0,50,0.00,,---,0.00,VWS V12.08,2013-09-08 00:03:00,
2013-09-07 20:08:00,73.3,53.0,29.29,North,360,0.0,3.0,49,0.00,,---,0.00,VWS V12.08,2013-09-08 00:08:00,
2013-09-07 20:13:00,73.3,53.6,29.29,North,360,0.0,3.0,50,0.00,,---,0.00,VWS V12.08,2013-09-08 00:13:00,
2013-09-07 20:18:00,73.7,53.4,29.29,North,360,0.0,3.0,49,0.00,,---,0.00,VWS V12.08,2013-09-08 00:18:00,
2013-09-07 20:23:00,73.9,53.0,29.29,North,360,0.0,3.0,48,0.00,,---,0.00,VWS V12.08,2013-09-08 00:23:00,
2013-09-07 20:28:00,73.9,53.0,29.29,North,360,2.0,3.0,48,0.00,,---,0.00,VWS V12.08,2013-09-08 00:28:00,
2013-09-07 20:33:00,74.0,51.9,29.29,North,360,0.0,3.0,46,0.00,,---,0.00,VWS V12.08,2013-09-08 00:33:00,
2013-09-07 20:38:00,74.2,50.9,29.29,North,360,5.0,5.0,44,0.00,,---,0.00,VWS V12.08,2013-09-08 00:38:00,
2013-09-07 20:43:00,74.6,51.3,29.29,North,360,2.0,5.0,44,0.00,,---,0.00,VWS V12.08,2013-09-08 00:43:00,
2013-09-07 20:48:00,74.7,50.7,29.29,North,360,1.0,5.0,43,0.00,,---,0.00,VWS V12.08,2013-09-08 00:48:00,
2013-09-07 20:53:00,74.9,49.6,29.29,North,360,2.0,5.0,41,0.00,,---,0.00,VWS V12.08,2013-09-08 00:53:00,
2013-09-07 20:58:00,74.7,48.8,29.28,North,360,0.0,0.0,40,0.00,,---,0.00,VWS V12.08,2013-09-08 00:58:00,
2013-09-07 21:03:00,74.7,48.1,29.28,North,360,0.0,4.0,39,0.00,,---,0.00,VWS V12.08,2013-09-08 01:03:00,
2013-09-07 21:08:00,74.7,48.1,29.28,North,360,1.0,4.0,39,0.00,,---,0.00,VWS V12.08,2013-09-08 01:08:00,
2013-09-07 21:13:00,74.9,48.3,29.28,North,360,0.0,4.0,39,0.00,,---,0.00,VWS V12.08,2013-09-08 01:13:00,
2013-09-07 21:18:00,74.9,48.3,29.28,North,360,1.0,4.0,39,0.00,,---,0.00,VWS V12.08,2013-09-08 01:18:00,
2013-09-07 21:23:00,74.9,47.6,29.28,North,360,0.0,4.0,38,0.00,,---,0.00,VWS V12.08,2013-09-08 01:23:00,
2013-09-07 21:28:00,74.9,47.6,29.28,North,360,0.0,4.0,38,0.00,,---,0.00,VWS V12.08,2013-09-08 01:28:00,
2013-09-07 21:33:00,75.1,47.8,29.28,North,360,2.0,3.0,38,0.00,,---,0.00,VWS V12.08,2013-09-08 01:33:00,
2013-09-07 21:38:00,75.3,48.0,29.28,North,360,0.0,3.0,38,0.00,,---,0.00,VWS V12.08,2013-09-08 01:38:00,
2013-09-07 21:43:00,75.3,47.3,29.28,North,360,3.0,4.0,37,0.00,,---,0.00,VWS V12.08,2013-09-08 01:43:00,
2013-09-07 21:48:00,75.1,47.8,29.28,North,360,0.0,4.0,38,0.00,,---,0.00,VWS V12.08,2013-09-08 01:48:00,
2013-09-07 21:53:00,75.1,47.8,29.28,North,360,2.0,4.0,38,0.00,,---,0.00,VWS V12.08,2013-09-08 01:53:00,
2013-09-07 21:58:00,75.1,49.2,29.28,North,360,0.0,0.0,40,0.00,,---,0.00,VWS V12.08,2013-09-08 01:58:00,
2013-09-07 22:03:00,74.7,52.6,29.28,North,360,2.0,2.0,46,0.00,,---,0.00,VWS V12.08,2013-09-08 02:03:00,
2013-09-07 22:08:00,74.4,52.9,29.28,North,360,0.0,2.0,47,0.00,,---,0.00,VWS V12.08,2013-09-08 02:08:00,
2013-09-07 22:13:00,74.0,53.7,29.28,North,360,2.0,3.0,49,0.00,,---,0.00,VWS V12.08,2013-09-08 02:13:00,
2013-09-07 22:18:00,73.7,53.9,29.28,North,360,0.0,3.0,50,0.00,,---,0.00,VWS V12.08,2013-09-08 02:18:00,
2013-09-07 22:23:00,73.5,53.7,29.28,North,360,0.0,3.0,50,0.00,,---,0.00,VWS V12.08,2013-09-08 02:23:00,
2013-09-07 22:28:00,73.5,52.1,29.28,North,360,2.0,5.0,47,0.00,,---,0.00,VWS V12.08,2013-09-08 02:28:00,
2013-09-07 22:33:00,73.7,52.8,29.28,North,360,0.0,2.0,48,0.00,,---,0.00,VWS V12.08,2013-09-08 02:33:00,
2013-09-07 22:38:00,73.9,50.6,29.28,North,360,5.0,5.0,44,0.00,,---,0.00,VWS V12.08,2013-09-08 02:38:00,
2013-09-07 22:43:00,73.9,51.8,29.27,North,360,0.0,5.0,46,0.00,,---,0.00,VWS V12.08,2013-09-08 02:43:00,
2013-09-07 22:48:00,74.0,51.3,29.27,North,360,0.0,5.0,45,0.00,,---,0.00,VWS V12.08,2013-09-08 02:48:00,
2013-09-07 22:53:00,74.2,50.9,29.27,North,360,1.0,5.0,44,0.00,,---,0.00,VWS V12.08,2013-09-08 02:53:00,
2013-09-07 22:58:00,74.2,49.0,29.27,North,360,2.0,4.0,41,0.00,,---,0.00,VWS V12.08,2013-09-08 02:58:00,
2013-09-07 23:03:00,74.2,49.0,29.27,North,360,2.0,4.0,41,0.00,,---,0.00,VWS V12.08,2013-09-08 03:03:00,
2013-09-07 23:08:00,74.2,48.3,29.27,North,360,2.0,5.0,40,0.00,,---,0.00,VWS V12.08,2013-09-08 03:08:00,
2013-09-07 23:13:00,74.2,49.0,29.27,North,360,0.0,5.0,41,0.00,,---,0.00,VWS V12.08,2013-09-08 03:13:00,
2013-09-07 23:18:00,74.0,48.8,29.27,North,360,0.0,5.0,41,0.00,,---,0.00,VWS V12.08,2013-09-08 03:18:00,
2013-09-07 23:23:00,74.0,48.8,29.27,North,360,2.0,5.0,41,0.00,,---,0.00,VWS V12.08,2013-09-08 03:23:00,
2013-09-07 23:28:00,73.9,48.1,29.27,North,360,2.0,5.0,40,0.00,,---,0.00,VWS V12.08,2013-09-08 03:28:00,
2013-09-07 23:33:00,73.9,48.7,29.27,North,360,1.0,2.0,41,0.00,,---,0.00,VWS V12.08,2013-09-08 03:33:00,
2013-09-07 23:38:00,73.9,48.7,29.27,North,360,6.0,6.0,41,0.00,,---,0.00,VWS V12.08,2013-09-08 03:38:00,
2013-09-07 23:43:00,73.9,49.4,29.26,North,360,0.0,6.0,42,0.00,,---,0.00,VWS V12.08,2013-09-08 03:43:00,
2013-09-07 23:48:00,73.9,50.6,29.26,North,360,2.0,6.0,44,0.00,,---,0.00,VWS V12.08,2013-09-08 03:48:00,
2013-09-07 23:53:00,73.9,50.6,29.26,North,360,1.0,6.0,44,0.00,,---,0.00,VWS V12.08,2013-09-08 03:53:00,
2013-09-07 23:58:00,73.9,48.7,29.26,North,360,0.0,0.0,41,0.00,,---,0.00,VWS V12.08,2013-09-08 03:58:00,